Theta_e
315 315 315 315 314 313 312 311 312 312 312 313 313 313 313 314 314 313 318 320 313 308 310 312 312 309 309 309 305 308 306 307 307 302 302 302 301 304 302 306 305 305 302 303 307 302 301 317 316 312 320 326 325 325
315 315 315 315 314 314 312 311 311 311 312 312 312 313 313 313 314 313 314 318 316 308 309 314 314 315 313 312 309 308 306 305 304 303 307 307 306 307 305 300 311 304 306 301 307 308 317 319 320 327 324 326 327 327
315 315 314 315 315 314 313 312 311 311 311 311 312 312 312 312 312 312 312 314 312 308 309 312 312 316 318 317 317 304 307 307 305 308 305 306 303 310 304 304 306 313 317 312 312 314 318 321 324 327 326 325 328 327
314 315 314 315 315 314 313 312 311 311 311 311 311 311 312 312 312 311 310 313 311 307 302 308 316 313 318 317 314 313 310 310 308 308 307 304 302 310 307 309 309 313 315 313 312 316 316 320 323 324 324 323 324 325
313 314 314 314 315 314 313 312 311 310 310 311 311 311 311 311 312 311 314 315 314 307 302 304 311 316 316 315 313 314 312 308 304 303 302 300 305 303 307 307 305 311 311 310 309 317 315 313 320 325 323 322 323 321
312 313 313 313 314 314 313 312 311 310 310 310 310 310 310 310 311 312 308 314 317 316 301 299 311 312 314 314 312 313 313 309 304 303 302 306 309 304 301 301 309 312 315 314 314 317 317 318 321 323 324 323 322 321
312 313 313 313 313 313 313 312 311 310 310 310 310 310 310 310 310 309 308 309 312 316 303 300 303 311 314 313 312 314 314 308 303 302 300 304 305 310 303 300 309 312 315 316 320 319 314 313 316 322 325 325 323 323
312 312 313 313 313 313 313 312 311 310 310 310 311 310 310 310 309 309 314 310 312 308 305 295 301 305 314 306 306 315 310 306 304 302 305 304 306 307 301 308 311 313 315 314 316 320 319 319 319 321 323 324 322 322
312 312 313 313 313 313 313 311 311 310 310 310 310 310 312 309 307 310 314 312 315 309 299 298 295 296 309 306 309 311 312 300 306 301 302 306 303 301 307 309 311 313 314 314 316 317 317 317 318 320 320 321 321 321
312 312 312 312 312 313 312 311 310 310 310 309 310 312 305 311 310 315 309 304 302 303 302 298 304 296 301 301 304 304 310 304 300 306 310 301 303 311 314 315 317 317 317 317 315 314 315 315 316 318 320 322 322 322
312 312 312 312 312 313 312 310 309 309 308 313 310 307 314 310 310 307 301 300 300 297 301 303 304 302 306 296 300 306 304 307 299 306 304 302 306 311 316 317 319 322 323 320 319 320 319 317 318 319 320 322 322 323
311 312 311 312 312 312 311 309 308 310 312 306 305 310 312 307 305 299 298 303 301 299 306 305 307 307 304 306 301 306 301 304 297 309 302 301 312 317 318 318 320 323 323 323 322 322 324 325 325 325 322 321 323 325
311 311 311 311 312 312 310 309 307 308 307 310 305 302 302 301 294 295 293 298 302 308 309 308 306 305 303 304 301 300 297 298 306 299 298 305 311 313 315 316 318 321 322 322 324 325 325 325 327 326 325 324 324 325
310 311 311 311 311 311 310 308 307 309 309 303 302 294 297 296 300 302 301 303 308 310 310 309 307 304 305 300 301 295 301 300 294 293 296 306 307 310 312 314 316 318 320 321 322 324 325 326 327 326 326 325 325 326
310 310 311 311 310 310 309 308 307 311 308 302 303 293 299 305 307 307 308 307 309 310 308 306 309 306 300 297 299 296 294 292 295 295 299 303 305 306 310 312 314 319 320 320 324 325 326 328 327 324 324 325 326 328
310 310 310 311 310 310 309 309 310 310 306 304 303 300 305 304 304 304 305 304 309 308 309 310 306 301 298 298 294 292 289 290 295 300 303 305 307 310 313 317 319 323 324 326 324 327 327 329 327 325 325 325 327 330
310 311 310 309 310 309 308 310 308 304 302 299 301 306 305 305 304 306 307 307 311 308 301 303 299 298 302 297 296 297 292 297 301 305 308 310 312 314 316 319 322 324 325 325 325 325 326 326 327 327 327 329 329 330
308 307 309 308 309 308 311 309 307 301 297 302 301 303 305 307 306 307 308 310 308 306 304 301 306 301 297 295 298 304 305 307 308 309 311 314 315 317 318 319 320 321 321 326 327 327 328 329 331 332 334 335 334 335
311 311 309 308 309 309 306 304 305 298 300 303 304 306 307 307 309 310 310 311 311 311 308 305 302 301 303 305 306 309 308 313 313 316 313 318 319 318 319 321 321 321 322 321 323 327 330 333 334 336 334 337 336 332
309 308 308 309 309 305 299 302 304 298 298 302 305 305 306 307 309 309 308 309 309 306 303 303 304 307 310 310 312 312 314 319 320 321 320 318 321 325 323 321 319 323 322 323 322 312 325 325 333 329 329 329 330 331
307 308 308 309 307 308 301 301 301 302 302 300 305 305 305 308 305 306 306 309 305 303 304 308 309 311 315 318 316 315 323 323 321 322 318 318 323 322 322 321 321 321 323 326 323 323 320 328 330 328 327 328 329 330
307 307 306 305 301 301 302 304 301 303 302 303 304 305 303 302 305 309 314 307 306 306 309 310 312 313 314 315 315 319 322 326 326 322 313 316 320 321 321 322 322 322 320 320 321 323 325 324 323 328 325 326 324 327
306 306 303 302 297 296 297 306 300 302 298 301 305 302 303 305 309 314 306 308 309 314 315 316 317 318 317 318 319 323 325 325 320 320 321 322 322 322 322 323 323 320 321 323 324 322 323 313 320 325 327 327 327 324
306 301 297 297 298 296 302 299 303 301 302 300 299 298 301 306 311 308 304 308 314 319 320 320 321 318 319 322 318 319 323 322 320 321 323 322 320 321 322 323 323 323 323 324 322 323 324 324 315 323 324 323 323 323
293 293 295 291 298 294 296 297 298 298 297 299 298 299 303 309 305 303 304 310 314 317 318 319 321 318 315 316 318 320 326 323 321 319 324 323 323 322 322 323 323 324 325 323 322 323 323 324 324 325 325 325 323 323
289 296 293 296 295 296 297 295 296 297 298 298 299 304 305 300 297 299 305 311 314 315 315 315 316 315 315 318 318 318 321 324 323 320 326 326 324 322 321 318 320 323 327 326 324 324 323 324 323 322 322 321 309 323
290 294 300 302 300 301 299 301 301 298 297 297 299 297 297 294 297 303 311 313 313 315 318 319 318 317 316 318 321 324 324 326 325 325 328 328 328 327 323 321 321 324 327 327 327 325 324 324 324 323 323 324 325 326
297 298 294 299 298 299 296 297 296 297 300 305 303 298 296 299 302 310 310 314 318 319 320 321 323 320 320 322 324 325 324 326 326 327 328 327 327 327 328 327 327 310 327 326 328 328 327 326 326 325 325 324 325 326
297 300 299 295 296 297 297 296 299 303 306 305 302 300 303 309 311 311 313 317 317 318 318 320 325 328 328 326 326 325 325 326 324 320 320 321 326 327 327 327 325 326 326 325 302 312 323 323 324 325 325 325 325 325
298 302 297 297 295 294 301 303 303 306 308 308 308 307 308 309 311 316 315 314 314 315 319 320 320 323 324 325 325 325 328 326 324 324 322 323 324 327 332 329 326 325 325 325 326 325 306 317 315 322 319 319 320 321
302 302 299 300 299 302 305 307 308 308 308 307 307 305 305 310 313 315 316 315 316 318 320 319 322 325 325 325 326 325 325 328 329 328 326 326 326 327 325 324 326 326 324 322 320 318 317 316 316 316 315 315 316 315
302 300 299 297 299 305 308 305 306 305 306 305 305 307 309 306 303 309 315 316 315 318 315 320 323 324 328 327 326 325 311 322 322 323 323 322 322 322 323 324 322 320 319 318 317 317 316 316 315 315 315 315 315 315
302 303 303 301 301 302 307 307 305 305 307 306 308 309 307 306 303 312 318 320 320 318 319 323 325 328 328 325 322 318 314 319 305 296 297 297 296 307 319 320 320 319 318 317 317 317 316 316 314 315 315 315 315 314
Wind_Speed
9 8 8 8 7 7 7 8 8 8 9 11 12 12 13 15 15 12 4 5 7 7 15 14 11 12 12 11 10 9 10 3 8 12 13 14 16 16 18 20 21 13 5 7 18 16 20 17 10 17 3 11 11 13
9 9 8 8 8 7 7 7 7 8 8 9 11 11 11 12 14 13 6 6 6 6 11 19 17 15 14 15 11 2 9 8 4 6 8 7 8 13 16 13 13 15 10 6 8 9 12 5 11 4 12 14 7 11
9 9 9 8 8 7 7 7 8 8 8 9 9 10 10 9 9 8 7 8 8 6 11 11 5 5 6 7 9 7 6 5 6 7 5 5 7 5 8 13 10 4 9 7 15 7 12 21 3 10 11 9 7 8
10 9 9 9 9 8 8 7 7 8 8 9 9 9 9 9 8 9 6 4 4 5 6 2 5 7 7 9 11 10 11 8 6 7 7 6 8 5 6 9 13 8 3 11 14 10 4 13 11 12 8 8 12 7
10 10 10 9 9 9 8 8 8 8 8 8 9 9 10 11 10 11 9 3 4 4 8 11 20 14 7 2 5 9 9 8 5 4 7 11 10 9 13 15 13 12 10 7 10 3 6 3 21 11 5 9 9 11
11 11 11 10 9 9 9 9 8 8 8 9 10 10 10 11 10 10 4 3 4 2 3 7 9 7 6 5 7 10 8 7 3 3 6 10 18 11 8 12 15 17 15 9 11 4 8 9 16 19 12 8 11 9
11 11 11 10 9 9 9 8 9 9 9 10 11 11 11 8 8 7 6 3 1 2 3 6 7 4 8 9 6 4 4 3 4 4 5 12 14 2 10 17 20 20 10 11 7 4 7 5 13 17 15 7 8 7
11 11 11 11 10 9 9 8 9 9 10 11 11 12 11 9 7 6 2 10 4 4 2 4 7 5 2 6 2 4 4 4 5 5 6 9 9 10 11 14 18 20 20 15 15 11 12 8 16 14 15 13 11 8
11 10 11 10 9 9 8 8 8 10 11 12 13 12 4 5 4 3 7 9 2 2 3 3 3 5 11 9 9 5 4 4 4 5 6 6 9 9 11 14 15 12 13 16 17 18 13 11 16 12 14 11 10 6
10 10 10 9 9 8 8 7 8 10 14 14 9 5 4 3 4 10 2 2 3 4 3 4 3 4 2 4 4 3 5 5 5 8 4 5 13 19 17 18 14 13 13 14 15 11 11 12 11 11 12 11 9 6
9 9 9 9 9 8 7 6 7 11 13 6 3 2 2 8 5 4 3 4 4 4 4 5 7 6 4 4 4 5 4 3 4 2 4 4 4 6 12 9 8 9 13 14 15 14 14 12 12 13 12 13 9 9
8 9 9 9 9 9 7 5 5 6 5 5 5 5 4 4 3 4 4 4 5 4 6 6 3 5 1 2 4 5 4 4 5 8 4 5 4 7 9 10 9 9 10 13 12 12 12 13 12 10 13 12 9 7
7 8 9 9 9 8 7 6 3 5 10 3 3 3 3 3 3 6 4 4 4 4 3 4 5 3 2 3 4 4 5 4 4 4 4 3 9 14 15 14 16 13 12 12 14 13 12 12 12 11 15 13 9 7
7 8 8 8 9 9 7 5 4 6 6 5 4 4 6 6 7 3 2 4 5 3 4 7 1 2 2 2 2 4 3 3 4 4 5 4 9 16 21 18 15 16 13 12 12 13 14 14 10 11 14 10 9 9
7 7 8 9 10 9 8 6 5 5 4 4 4 6 8 9 7 5 6 5 7 6 7 7 4 2 2 3 1 4 4 4 4 4 9 11 13 18 16 15 14 15 11 10 12 14 15 14 9 10 11 10 9 8
7 6 5 10 10 8 8 7 6 3 3 4 6 7 9 8 6 6 3 5 5 6 7 2 3 3 3 2 2 2 3 4 5 5 11 15 19 15 9 8 9 10 11 11 14 11 9 8 8 9 10 10 9 9
11 3 13 11 9 9 9 5 3 5 5 5 6 8 9 9 9 7 5 6 3 6 4 5 2 2 3 3 3 4 4 7 11 12 12 16 15 9 6 6 7 4 5 7 9 4 9 10 11 10 8 7 8 10
3 7 12 12 11 7 5 5 3 4 6 8 8 8 7 8 8 7 7 6 4 6 5 3 5 2 1 3 3 4 6 10 9 11 10 13 12 8 5 6 6 10 9 11 10 8 7 8 5 3 4 4 4 6
3 8 12 12 6 3 3 2 4 5 7 7 7 9 8 7 7 7 7 6 5 6 5 4 6 4 5 4 6 9 7 9 10 10 7 11 9 3 5 6 6 7 8 8 9 8 8 8 7 7 6 4 3 4
9 10 9 3 4 2 3 2 0 4 6 4 9 8 8 7 6 6 7 6 6 6 5 6 9 6 5 5 6 7 8 8 11 11 6 7 7 8 9 11 5 4 6 7 7 6 4 5 5 7 6 6 6 6
3 4 4 1 1 2 3 3 5 5 5 5 8 7 7 7 7 8 7 4 6 8 10 10 9 9 9 3 2 7 5 9 10 10 9 9 10 10 7 13 12 7 2 2 4 6 5 3 6 7 5 3 2 2
4 5 2 0 2 3 5 4 5 4 5 7 9 7 6 6 7 5 3 7 9 8 7 8 9 7 7 7 6 5 7 9 12 10 4 6 5 7 8 7 6 8 9 5 4 7 8 2 4 8 6 3 2 2
6 2 2 3 4 4 6 4 5 4 5 4 3 4 4 3 4 3 5 3 6 7 5 4 4 5 8 9 8 8 7 8 8 7 6 7 3 3 5 5 9 1 5 5 5 6 5 2 4 3 6 8 8 4
1 3 3 4 5 5 3 5 4 5 4 5 4 3 4 2 3 3 7 2 1 4 3 4 5 7 8 7 6 5 2 4 6 5 6 6 5 4 4 3 5 5 6 4 5 4 4 4 2 2 3 4 5 6
2 3 3 4 3 3 6 5 6 4 5 2 3 5 2 3 3 4 3 2 3 3 4 4 2 7 5 3 4 3 3 4 5 6 0 5 5 3 4 9 8 4 6 6 6 6 5 3 3 4 3 1 4 2
4 6 6 9 5 6 6 4 2 2 5 4 1 4 5 3 4 4 3 3 4 4 7 4 5 4 6 6 4 4 3 4 4 4 4 5 5 7 7 6 1 4 8 7 6 9 7 12 11 10 6 6 3 5
5 6 6 4 4 4 4 4 5 5 5 3 3 1 1 3 4 2 4 5 6 5 7 4 5 6 6 4 5 4 4 4 4 3 3 3 2 3 4 6 9 8 8 9 7 6 9 7 7 7 8 10 9 10
5 4 8 6 6 6 7 5 4 4 3 3 3 6 4 4 3 3 5 6 6 7 8 10 3 8 7 5 6 5 6 4 4 5 5 4 4 5 8 7 7 5 8 10 10 11 10 8 8 9 10 11 10 10
6 5 5 8 8 3 4 5 6 4 3 4 3 4 3 2 5 8 6 6 5 8 7 7 5 5 6 5 5 7 3 4 0 4 5 5 5 4 7 5 2 2 9 10 13 12 13 11 11 10 9 9 9 9
8 7 6 6 7 6 7 8 8 8 7 6 5 7 9 9 4 9 9 9 9 8 7 4 6 6 6 5 3 1 1 4 6 5 6 5 5 6 4 4 7 9 9 8 7 7 2 6 7 9 8 6 5 8
3 4 8 10 10 10 10 8 9 8 9 9 9 9 9 6 7 3 2 2 5 6 6 7 4 4 4 2 4 5 7 7 6 9 7 7 5 6 6 6 6 9 8 8 7 6 9 11 12 13 14 15 13 12
7 9 8 7 6 6 6 7 8 8 8 7 6 3 3 2 3 3 2 3 5 6 3 4 3 3 4 5 7 8 7 7 7 7 10 9 8 7 7 11 12 8 10 8 9 10 11 12 11 12 12 13 14 14
7 6 6 6 6 5 4 5 4 4 6 5 2 4 2 3 4 2 2 2 3 3 3 4 1 3 12 11 6 11 13 11 13 14 16 17 16 9 10 9 9 10 11 11 11 12 13 15 10 9 10 9 9 10
Wind_Direction
267 271 267 269 280 292 306 316 327 338 345 349 350 349 350 350 348 334 1 15 341 305 295 285 293 291 294 275 279 316 309 319 269 261 260 262 260 259 253 256 268 272 134 240 218 219 244 33 2 261 13 101 101 73
268 266 268 261 269 277 289 304 311 321 330 340 347 350 351 347 345 340 300 27 337 264 296 319 291 271 271 282 286 220 289 306 320 302 9 311 299 299 296 274 257 265 152 183 292 220 256 307 211 326 62 316 73 78
273 266 263 260 261 265 278 290 300 305 313 324 333 339 343 341 336 327 321 346 302 269 278 239 241 172 266 259 252 242 241 271 268 305 307 275 271 308 283 290 319 302 324 259 156 229 320 318 216 54 35 343 56 42
275 263 258 258 254 252 259 274 287 295 304 311 316 321 320 322 319 307 295 333 313 305 287 335 354 267 268 247 209 244 267 277 289 302 278 271 273 254 278 281 295 295 352 262 258 212 3 317 46 40 32 27 15 351
270 267 256 253 247 247 252 260 270 281 294 303 307 312 312 309 306 287 266 208 213 294 324 311 304 254 226 238 273 243 241 275 271 254 254 257 263 271 279 274 269 268 271 264 269 353 107 340 320 337 38 21 28 1
260 258 249 247 244 244 249 257 269 278 288 296 302 305 306 307 312 282 170 107 120 118 286 294 5 275 208 182 249 238 229 218 186 265 261 253 250 262 282 278 276 238 261 164 263 341 289 215 280 310 313 0 359 333
259 257 246 240 235 240 246 255 265 273 286 293 297 295 291 287 280 293 9 44 257 213 258 279 298 199 229 262 254 226 192 169 204 226 236 257 268 188 266 260 268 280 273 271 218 244 278 262 264 283 301 321 321 322
259 256 240 231 230 232 238 251 266 279 287 290 290 288 287 272 269 270 15 196 225 278 320 279 267 272 305 309 240 208 201 183 209 248 257 254 247 245 246 253 251 258 270 255 250 227 251 287 276 271 285 293 310 325
259 250 231 225 225 227 235 251 267 282 286 286 288 294 245 215 216 90 131 153 217 294 268 228 272 311 1 310 295 172 207 215 216 233 238 253 233 221 232 244 267 251 241 241 247 246 251 238 255 252 273 274 280 304
257 242 224 219 220 222 232 253 274 287 283 287 264 218 193 97 125 149 124 194 187 193 224 259 207 257 330 300 292 280 186 225 222 213 217 228 250 255 239 247 259 269 273 270 262 252 237 243 253 263 272 276 290 297
247 230 220 217 215 216 220 244 280 302 270 219 259 22 79 146 229 201 232 228 174 225 214 236 236 259 182 241 287 273 312 255 269 109 218 247 264 318 220 236 252 291 286 256 255 255 254 258 256 248 249 253 265 268
232 225 216 212 211 204 207 221 274 270 19 8 304 278 268 227 223 236 223 205 216 233 177 241 226 213 228 244 263 283 279 277 267 340 260 264 61 46 21 354 324 294 280 274 264 259 260 248 240 248 249 249 249 257
225 218 217 212 199 191 197 204 235 300 276 182 260 250 239 223 243 230 211 220 212 196 211 227 280 151 185 221 262 287 266 258 322 255 264 352 352 335 335 329 321 298 276 290 294 296 277 257 253 245 236 231 227 219
222 217 209 200 185 185 193 197 222 250 253 239 218 242 234 203 235 228 218 322 300 273 290 262 276 163 196 216 253 253 288 312 261 266 254 343 323 307 305 303 309 300 293 285 273 267 262 265 243 232 218 211 207 206
209 206 195 187 182 185 183 194 222 238 271 256 216 245 225 251 252 200 205 245 273 294 302 307 46 164 164 270 287 303 280 282 276 295 294 284 298 294 288 281 282 273 273 278 273 262 244 232 213 216 199 201 203 209
176 153 193 171 186 181 173 196 209 258 254 254 246 253 255 262 300 4 46 292 283 299 304 52 232 200 206 249 248 273 292 267 276 263 282 293 289 287 275 286 289 293 289 268 254 243 230 197 192 206 202 210 204 196
171 241 153 154 163 174 202 245 207 229 246 245 244 240 261 274 274 284 282 290 310 281 299 279 287 54 117 243 229 180 224 244 281 292 297 310 325 10 16 359 335 336 7 13 7 140 155 174 184 182 186 189 212 197
244 146 143 150 172 157 184 226 244 240 249 244 260 272 268 266 275 276 277 279 262 266 285 287 293 236 262 271 298 259 259 272 272 281 300 306 320 347 4 28 9 28 29 24 16 27 26 61 61 76 138 230 171 139
103 134 163 181 249 268 206 205 253 259 246 273 265 258 266 271 270 276 273 270 266 275 271 237 248 230 177 208 240 264 271 292 302 296 215 252 253 293 334 10 335 19 69 45 29 30 35 58 90 100 89 137 193 137
98 120 140 135 308 190 232 199 31 282 280 283 284 276 270 271 281 264 254 249 237 213 235 234 253 271 167 182 246 303 312 307 312 329 353 202 198 207 193 97 341 329 78 53 30 349 359 27 70 68 58 32 52 43
137 112 111 218 263 312 297 266 234 239 273 266 270 283 285 272 265 250 245 243 240 242 240 249 261 278 299 349 329 302 309 310 310 306 1 345 339 11 26 156 154 201 219 154 152 139 163 161 105 94 75 58 41 8
100 135 111 92 232 226 261 240 264 287 258 273 286 263 268 273 268 244 247 225 228 237 252 249 268 284 276 254 266 304 304 301 285 281 318 314 359 1 358 14 40 135 162 184 91 95 126 206 344 119 102 106 225 118
127 148 158 167 227 225 263 211 239 240 257 259 258 262 240 291 334 277 252 249 218 226 246 306 287 263 266 275 271 260 267 273 297 341 336 334 3 28 323 327 123 306 50 31 52 75 87 8 41 357 134 166 211 178
71 188 202 209 229 247 223 214 227 249 244 239 257 280 293 251 305 255 261 246 354 22 339 278 257 256 208 227 274 267 222 337 297 327 7 335 317 8 330 18 11 37 355 38 41 24 12 38 248 322 319 289 257 196
162 205 210 220 202 258 274 260 223 228 245 281 273 267 22 301 262 263 266 30 4 0 350 301 273 277 283 273 255 36 126 326 343 321 292 293 314 315 341 22 29 32 7 3 20 24 28 14 23 8 328 315 337 271
218 200 219 192 203 230 209 250 202 226 284 263 326 19 0 346 278 293 332 335 333 348 301 353 307 311 321 347 307 289 27 350 316 301 3 336 326 17 41 116 225 10 13 12 15 12 23 38 35 49 75 48 5 4
236 213 221 230 248 237 264 267 273 265 250 235 91 277 244 249 261 318 287 295 307 337 321 275 281 287 292 268 277 297 309 308 289 322 323 315 7 78 94 43 47 17 8 4 31 21 72 67 50 20 50 72 47 38
256 271 233 218 227 254 264 278 250 255 231 147 198 200 215 227 220 243 296 349 15 338 320 309 280 278 292 326 334 334 298 230 215 246 198 199 100 73 84 90 82 79 62 24 350 52 64 61 64 68 68 65 55 51
233 226 253 239 216 226 244 230 253 257 219 198 248 300 281 233 308 307 336 338 313 287 297 318 297 317 291 272 272 254 240 36 103 195 162 122 61 53 60 45 184 218 90 78 46 43 53 63 73 88 83 85 92 84
246 211 215 239 209 222 235 225 249 254 264 277 290 279 272 274 331 10 338 321 304 296 300 300 279 287 291 288 253 278 129 143 120 97 114 115 125 81 63 32 48 40 84 91 80 102 359 83 68 79 71 67 86 108
256 247 236 239 249 243 245 248 264 272 268 271 275 275 297 6 355 330 293 276 277 283 266 261 270 254 250 154 141 121 76 55 72 98 112 107 124 150 116 96 94 91 97 82 85 95 96 86 79 76 71 68 66 64
221 225 240 254 280 294 259 262 269 267 264 255 263 263 96 41 268 275 261 286 284 273 214 256 162 101 101 95 95 106 153 106 101 90 83 80 85 97 112 112 105 111 115 139 118 103 108 103 102 104 102 98 96 90
217 237 238 254 265 275 11 331 285 275 241 234 125 81 154 224 255 264 285 274 339 57 52 68 117 131 109 107 112 89 78 80 69 57 53 43 25 29 98 105 116 116 106 95 89 80 72 77 70 67 78 81 76 73